Location: Pasadena, ca
(34.1243°N, 118.1037°W)
Time: 23:11:57
(UTC-07:00)

Hubble Space Telescope - Pass Details

Date: 11 October 2017
Orbit: 537 x 541 km, 28.5° (Epoch: 23 October)

Event Time Altitude Azimuth Distance (km) Brightness Sun altitude
Exits shadow 05:09:38 19° 176° (S) 1,321 2.7 -22.5°
Drops below altitude 10° 05:11:42 10° 148° (SSE) 1,785 3.7 -22.1°
Sets 05:14:23 0° 132° (SE) 2,675 4.9 -21.5°
